Presure
119 155 156 158 149 151 163 152 165 180 174 150 162 196 174 173 214 192 150 231 243 202 260 243 325 313 431 206 126 149 175 200 161 114 126 134 120 115 106 125 130 137 127 123 156
132 138 153 143 160 141 153 163 148 146 180 169 171 172 169 187 173 220 180 165 205 189 233 286 215 307 171 184 129 290 177 347 174 138 116 191 114 105 176 110 119 151 104 119 151
144 141 166 141 145 156 163 158 158 171 160 156 161 156 172 190 217 187 200 202 229 121 157 304 136 436 370 403 135 126 137 154 149 128 110 118 127 133 111 155 120 186 147 106 113
164 157 142 139 158 156 143 154 153 157 171 172 147 198 219 174 182 195 198 152 192 144 216 169 316 147 406 384 133 115 122 110 174 134 117 109 125 124 103 155 161 152 125 127 123
133 156 161 146 151 142 142 159 147 164 156 150 177 186 159 188 173 184 168 237 156 150 249 274 361 175 394 314 122 270 110 107 122 151 140 107 146 129 128 144 164 130 139 109 125
139 143 150 127 151 149 146 141 160 143 164 171 165 156 179 158 172 205 150 138 178 250 256 145 156 371 164 150 125 286 378 109 115 101 331 308 170 133 130 115 176 160 147 67 126
156 152 150 135 141 144 145 142 142 143 180 172 162 150 167 174 197 168 210 212 197 232 124 251 394 152 155 159 267 366 164 179 148 108 419 402 377 378 131 128 115 154 110 176 139
126 153 154 152 157 162 144 152 140 150 152 172 161 178 169 195 155 182 171 145 203 213 160 163 237 153 150 366 348 358 344 283 358 431 432 391 171 381 176 133 284 184 154 114 132
145 137 148 147 157 144 151 151 154 163 177 162 163 174 158 186 150 167 124 224 123 190 146 138 265 295 154 362 156 352 363 430 411 411 423 405 370 376 304 325 123 88 110 157 134
130 140 146 135 148 148 152 133 156 152 157 167 140 187 190 172 148 197 139 235 132 152 162 171 296 304 385 357 338 344 360 433 409 407 408 383 362 360 353 326 324 86 156 230 197
149 152 126 157 140 170 153 148 155 165 132 165 139 175 164 203 164 213 151 122 158 228 144 154 168 403 384 354 335 341 356 421 409 410 424 363 362 360 359 383 388 364 210 357 317
158 143 135 152 143 148 166 163 150 162 155 150 163 149 177 153 182 125 138 204 231 229 241 151 193 342 379 349 331 338 354 415 406 419 366 363 372 372 365 361 366 370 384 346 335
136 148 141 147 150 152 156 137 148 152 155 154 174 150 162 156 162 160 149 222 220 150 170 147 227 246 373 344 325 336 361 410 394 422 352 364 373 366 363 355 349 378 418 344 298
145 147 149 139 142 160 142 125 150 149 150 191 160 140 150 143 160 166 129 215 149 211 223 148 135 166 371 339 322 337 364 404 395 408 347 356 328 341 331 336 361 365 415 379 238
155 133 153 146 141 150 127 168 144 173 160 164 189 196 150 179 155 152 190 213 220 134 123 228 153 397 372 338 321 319 368 397 393 396 369 340 326 317 331 347 348 376 325 326 271
138 128 156 169 170 127 142 143 158 147 171 161 159 168 175 142 202 179 178 228 156 199 252 157 132 405 371 337 321 319 404 395 393 392 378 334 312 327 327 338 350 378 298 282 267
141 159 144 152 134 132 153 130 149 155 152 172 195 198 142 148 157 168 192 223 181 168 192 136 251 383 369 340 319 342 400 390 395 384 373 334 318 322 330 333 337 371 310 266 253
133 137 151 120 159 139 148 142 122 157 163 169 157 131 182 141 132 178 215 224 208 136 141 147 377 407 370 337 318 375 401 390 393 384 369 340 310 316 328 323 343 347 267 251 258
152 139 127 161 166 132 142 136 166 162 172 150 178 134 186 166 151 131 220 187 239 150 161 380 139 407 367 338 317 368 395 388 389 388 362 329 310 312 328 325 344 323 256 242 236
151 120 141 153 118 148 143 129 160 146 140 167 183 170 177 160 184 136 148 126 213 134 167 124 376 389 371 337 319 369 330 387 393 382 341 315 304 307 313 333 333 270 254 239 236
159 135 150 139 115 149 149 165 166 161 159 139 164 175 175 142 196 133 150 224 196 159 164 134 143 269 370 335 316 379 323 385 388 352 327 303 305 307 315 327 280 255 257 243 218
147 142 168 132 169 157 154 172 181 139 182 127 147 176 137 142 205 186 154 207 252 171 137 150 251 407 207 333 314 310 324 389 391 332 325 294 301 314 309 327 326 271 241 231 216
169 176 153 155 160 146 142 152 149 182 162 187 140 167 204 169 188 165 214 235 155 139 330 151 364 402 377 332 315 301 335 389 394 332 316 318 298 310 319 309 312 266 234 223 224
168 175 146 167 156 157 128 154 169 186 179 185 190 143 143 194 196 249 288 287 210 280 142 334 141 389 374 338 311 346 351 391 393 343 307 316 302 311 305 302 295 244 232 224 177
141 134 141 146 174 146 133 143 168 182 176 177 124 166 185 203 152 215 254 150 272 177 126 132 235 372 375 337 312 302 359 339 389 339 316 302 307 312 301 293 317 261 243 234 223
176 164 188 170 174 164 159 168 180 119 161 193 185 198 199 184 200 133 159 283 137 169 132 154 151 389 369 337 311 305 370 310 386 318 311 300 299 312 300 288 295 260 249 224 234
139 152 153 111 159 159 141 180 116 168 181 147 150 189 241 225 256 196 148 278 234 117 368 263 345 176 368 339 313 379 380 331 380 385 306 305 301 309 317 295 300 268 252 213 226
Wind_Speed
28 44 42 49 46 49 60 49 64 56 56 40 49 71 62 52 77 62 50 87 100 60 101 85 112 51 46 26 52 16 43 59 43 52 53 48 43 43 24 43 34 52 45 31 42
29 36 52 48 52 39 51 60 43 42 71 68 67 66 57 70 48 86 45 44 61 57 78 120 65 46 56 42 54 28 46 34 51 64 52 64 46 33 34 41 41 59 42 43 46
33 42 38 43 53 57 59 59 66 66 64 44 59 45 70 70 92 63 75 63 99 26 54 129 49 44 36 42 57 36 42 37 55 63 49 43 61 53 54 36 41 43 55 42 50
36 41 45 40 47 53 45 61 59 62 73 76 45 85 99 60 62 71 75 54 71 39 57 53 123 40 40 41 43 51 51 49 47 66 62 42 50 68 41 39 45 59 45 55 54
35 39 43 52 55 48 49 65 51 63 55 41 72 81 51 75 57 65 49 116 37 57 99 131 70 42 41 40 40 35 53 49 48 35 64 49 61 74 58 50 42 35 61 47 57
44 47 52 37 56 58 59 49 60 45 68 80 59 44 82 51 60 86 44 27 64 121 120 23 36 73 41 35 51 32 30 52 57 38 30 48 47 71 76 67 57 62 57 14 64
54 49 54 41 50 56 59 50 48 46 82 80 64 47 60 81 90 57 88 104 77 91 11 125 81 40 40 48 35 32 48 36 48 55 33 44 43 40 71 73 69 60 50 57 60
33 50 54 59 61 63 60 69 45 62 57 86 64 86 80 92 59 73 62 41 70 98 56 51 81 38 41 35 35 32 28 33 18 15 27 44 72 47 77 67 73 78 64 48 68
56 39 56 55 60 56 65 72 70 79 87 75 70 93 55 91 54 58 33 121 31 77 36 42 57 94 46 34 44 31 27 11 5 5 17 46 46 43 54 61 80 43 47 63 74
43 58 63 47 64 64 72 46 79 71 78 89 46 97 94 77 43 97 39 134 38 44 38 52 39 81 37 33 32 29 24 9 10 11 29 43 46 48 45 51 70 38 38 77 77
59 58 41 63 52 66 61 71 77 81 50 86 46 94 60 114 70 119 52 39 47 97 47 48 49 40 36 33 30 28 22 7 8 14 26 44 48 46 45 55 60 72 66 77 79
52 61 54 68 65 68 69 71 72 84 70 54 70 50 85 46 92 26 40 96 130 121 141 48 80 38 34 32 30 26 20 6 9 17 41 38 41 48 60 64 66 65 65 75 83
57 61 60 60 70 63 74 54 73 70 80 72 96 57 63 56 66 51 62 128 107 54 44 45 47 40 33 31 29 24 16 6 11 17 31 35 47 55 64 62 61 62 64 75 83
62 67 58 62 70 70 62 49 78 74 72 107 70 54 48 54 58 70 33 115 42 74 131 37 43 52 30 28 27 20 14 7 12 21 36 39 45 64 59 61 63 62 70 80 86
59 48 70 72 66 74 42 76 71 86 86 88 107 114 60 91 62 56 81 115 117 44 24 115 44 36 28 26 25 24 10 7 12 27 47 55 65 54 61 62 60 67 74 85 92
61 41 67 71 76 42 69 71 83 67 90 88 72 80 92 53 122 77 87 138 47 103 155 44 39 34 29 24 22 21 5 9 14 29 50 71 61 64 63 64 64 69 85 92 91
68 70 72 76 57 51 71 56 80 84 76 95 119 119 53 47 49 78 81 133 50 53 83 35 47 36 26 21 19 12 7 10 15 31 53 71 66 68 64 67 71 76 94 99 102
52 59 69 48 77 62 79 70 56 90 93 96 76 48 101 51 33 94 129 146 97 41 41 38 58 34 23 19 18 4 10 13 19 32 56 72 65 63 66 69 71 90 99 94 98
77 71 42 77 80 58 74 61 93 94 95 70 104 53 106 72 58 29 142 61 145 47 51 66 37 32 22 18 16 5 13 17 23 37 59 75 72 69 74 72 77 100 101 101 106
78 46 65 72 52 79 80 65 93 66 60 99 109 92 98 55 97 32 54 33 80 38 41 33 54 34 22 15 14 9 8 21 24 43 70 73 69 66 73 71 85 101 107 100 104
74 65 82 74 57 87 87 90 96 86 94 59 86 96 99 39 117 32 52 142 53 50 54 34 41 39 19 13 13 15 10 25 29 64 72 67 69 70 75 76 89 99 105 108 110
81 83 85 63 91 89 92 96 104 64 113 48 69 101 36 45 141 110 54 73 116 59 30 35 50 30 37 11 12 9 14 28 34 63 68 59 66 77 78 74 74 112 107 117 116
88 95 89 89 86 84 76 94 85 113 90 116 55 90 139 67 89 71 129 67 47 41 57 30 46 28 20 9 13 10 20 31 33 68 65 79 69 75 77 79 94 117 109 107 110
88 94 79 89 90 90 61 88 102 120 111 113 120 57 46 117 103 78 88 91 60 101 30 48 35 29 18 9 12 17 26 33 36 75 69 76 73 76 85 88 105 106 110 114 72
81 67 82 93 98 89 59 78 102 115 106 105 28 86 116 139 62 124 82 37 92 50 30 34 39 28 19 9 12 14 30 28 40 73 77 70 75 78 89 98 85 117 114 116 116
106 97 116 95 100 98 96 103 113 34 92 128 117 140 137 91 63 32 46 96 39 41 35 37 33 27 18 9 13 16 33 29 40 63 73 70 73 80 91 99 110 118 113 103 118
68 95 86 32 94 96 72 111 14 102 115 57 67 125 102 128 89 74 35 95 77 22 51 40 38 28 17 10 14 13 35 36 40 46 69 74 79 79 85 98 99 122 119 103 114
Wind_Direction
312 337 337 334 331 332 335 330 334 345 337 310 323 343 338 332 341 328 316 349 352 344 351 340 345 298 317 275 213 277 288 270 266 244 235 237 229 234 256 242 236 228 231 232 221
325 334 331 331 332 325 332 334 327 315 341 332 335 336 339 338 330 344 322 293 332 340 342 351 340 307 297 295 211 288 282 272 244 216 242 248 244 269 238 261 227 217 243 239 223
333 328 341 328 328 328 334 333 330 335 332 323 335 323 337 338 345 341 336 335 346 238 293 350 285 325 312 323 207 216 203 238 232 221 239 259 230 238 257 218 254 237 217 261 252
341 328 323 323 334 332 321 330 329 330 332 333 309 343 348 338 342 337 339 298 329 306 327 302 350 264 327 326 214 224 225 244 269 226 232 260 255 232 273 211 230 213 234 232 239
320 334 330 324 324 324 324 332 323 333 325 317 337 337 327 336 329 338 316 345 320 297 350 347 339 296 328 313 251 300 246 258 241 249 235 269 254 231 251 226 218 221 210 251 236
323 324 323 303 324 325 326 320 331 314 332 332 334 319 337 317 323 342 316 305 326 347 354 297 300 339 302 296 243 294 322 261 240 276 229 222 241 227 229 251 217 229 211 205 227
321 321 320 315 320 323 324 322 319 311 336 328 331 307 334 338 339 332 341 343 339 344 312 351 346 309 304 299 301 326 271 262 262 268 211 195 208 207 230 229 251 209 226 223 210
305 318 317 317 323 329 327 326 312 324 325 331 332 332 330 337 329 340 324 311 341 348 312 320 338 301 310 333 332 328 315 266 263 226 205 192 243 209 224 226 214 231 222 230 218
316 311 317 317 318 322 328 325 324 328 334 330 325 330 317 332 310 327 284 346 299 347 316 314 338 345 310 337 298 329 329 274 264 189 202 191 202 209 210 200 237 228 249 229 213
311 314 314 321 320 321 321 307 323 327 323 328 307 332 335 334 324 337 305 346 303 336 311 324 333 338 340 337 331 325 326 252 230 197 179 171 187 201 193 211 208 231 217 206 222
307 313 312 312 322 332 321 324 325 328 306 327 303 331 333 339 334 341 319 299 323 349 302 309 320 342 338 337 330 325 327 257 215 194 186 187 195 203 189 176 185 203 228 198 200
309 310 314 312 317 319 325 333 322 326 324 322 323 315 335 313 336 283 322 343 342 346 347 315 338 338 337 338 329 325 329 228 198 193 172 186 182 173 172 177 180 189 190 190 192
312 308 311 313 314 320 318 318 323 323 327 321 329 319 332 329 331 329 324 342 344 325 335 319 328 331 338 338 330 325 329 200 193 185 187 177 174 171 170 178 187 182 184 186 191
307 307 309 315 315 319 319 301 322 326 325 336 327 311 315 319 319 335 309 341 317 347 340 325 324 329 338 338 328 324 334 205 192 176 181 167 174 157 167 173 178 184 182 178 193
305 309 306 310 317 316 304 329 322 327 323 324 334 334 312 329 328 317 339 340 341 310 320 339 327 345 340 336 328 323 336 201 183 175 177 164 168 180 173 172 176 176 175 171 180
307 304 310 321 326 299 319 314 321 320 324 324 320 326 328 313 334 329 330 337 324 341 339 319 318 346 339 334 329 323 199 202 181 178 174 167 172 175 171 170 173 178 171 172 173
302 309 306 310 317 310 313 306 322 321 321 324 332 332 306 309 323 332 333 338 337 331 331 320 337 343 340 333 327 313 185 191 183 179 177 171 170 168 168 172 175 181 170 174 177
304 302 304 296 312 314 317 318 299 319 321 322 324 314 330 308 330 331 336 335 334 319 312 322 352 346 341 329 323 226 179 182 182 185 177 175 168 167 169 173 178 176 172 178 178
297 305 301 311 315 309 316 312 317 317 324 320 325 320 326 328 313 309 333 335 334 316 319 350 331 345 338 323 317 222 175 180 183 189 180 168 168 168 172 175 179 173 173 176 177
300 289 298 313 293 312 315 309 320 322 312 321 325 324 323 323 326 322 324 299 330 314 326 319 351 346 338 316 307 206 248 180 183 185 173 167 171 173 172 176 178 171 174 177 181
305 300 302 308 292 310 311 316 318 317 318 315 321 325 323 326 329 316 318 330 338 317 319 319 330 335 338 310 292 198 229 177 185 175 171 170 173 173 174 178 174 174 175 178 183
300 300 307 306 314 307 309 318 322 316 322 321 321 323 326 325 327 325 310 345 332 313 312 325 332 340 328 302 280 266 212 180 185 176 172 176 176 176 175 178 180 175 177 181 185
305 310 297 302 306 307 309 310 315 320 318 322 317 319 326 323 326 314 324 337 324 301 341 335 347 338 335 297 265 257 202 182 183 181 175 179 179 180 180 177 182 179 181 185 186
302 307 298 306 303 310 295 311 315 319 318 321 321 322 333 321 325 341 341 338 335 345 318 341 323 339 331 299 249 202 195 186 183 181 182 180 182 181 181 181 182 182 183 186 197
298 292 300 301 311 303 307 310 311 317 316 322 319 320 322 321 314 322 336 300 332 323 317 322 338 336 325 288 241 231 193 194 188 182 181 186 185 183 183 184 184 185 186 187 188
304 303 307 307 310 306 308 307 313 304 312 320 317 319 320 316 324 287 310 342 300 340 319 313 324 331 320 284 232 226 193 196 190 187 185 190 190 187 186 186 187 185 189 191 191
288 295 301 303 301 301 301 309 298 312 316 323 319 317 326 320 333 327 300 341 335 300 339 332 341 320 310 278 232 219 193 196 189 192 194 193 191 190 194 190 191 188 190 192 194